QPF
0.00 0.00 0.01 0.01 0.00 0.00 0.00 0.00 0.00 0.00 0.00 0.00 0.01 0.02 0.01 0.01 0.00 0.00 0.00 0.00 0.00 0.00 0.01 0.01 0.02 0.04 0.04 0.03 0.02 0.01 0.00 0.00 0.00 0.00 0.00 0.00 0.00 0.00 0.00 0.00 0.00 0.00 0.00
0.00 0.00 0.01 0.01 0.00 0.00 0.00 0.00 0.00 0.00 0.00 0.00 0.00 0.01 0.01 0.01 0.00 0.00 0.00 0.00 0.00 0.00 0.01 0.02 0.03 0.05 0.05 0.03 0.02 0.01 0.00 0.00 0.00 0.00 0.00 0.00 0.00 0.00 0.00 0.00 0.00 0.00 0.00
0.00 0.00 0.01 0.00 0.00 0.00 0.00 0.00 0.00 0.00 0.00 0.00 0.00 0.01 0.01 0.01 0.00 0.00 0.00 0.00 0.00 0.00 0.00 0.01 0.02 0.03 0.03 0.02 0.01 0.00 0.00 0.00 0.00 0.00 0.00 0.00 0.00 0.00 0.00 0.00 0.00 0.00 0.00
0.00 0.00 0.00 0.00 0.00 0.00 0.00 0.00 0.00 0.00 0.00 0.00 0.00 0.01 0.01 0.01 0.00 0.00 0.00 0.00 0.00 0.00 0.00 0.00 0.01 0.01 0.01 0.00 0.00 0.00 0.00 0.00 0.00 0.00 0.00 0.00 0.00 0.00 0.00 0.00 0.00 0.00 0.00
0.00 0.00 0.00 0.00 0.00 0.00 0.00 0.00 0.00 0.00 0.00 0.00 0.00 0.00 0.00 0.00 0.00 0.00 0.00 0.00 0.00 0.00 0.00 0.00 0.00 0.00 0.00 0.00 0.00 0.00 0.00 0.00 0.00 0.00 0.00 0.00 0.00 0.00 0.00 0.00 0.01 0.01 0.01
0.00 0.00 0.00 0.00 0.00 0.00 0.00 0.00 0.00 0.00 0.00 0.00 0.00 0.00 0.00 0.01 0.01 0.00 0.00 0.00 0.00 0.00 0.00 0.00 0.00 0.00 0.00 0.00 0.00 0.00 0.00 0.00 0.00 0.00 0.00 0.00 0.00 0.00 0.00 0.00 0.00 0.01 0.01
0.00 0.00 0.00 0.01 0.01 0.00 0.00 0.00 0.00 0.00 0.00 0.00 0.00 0.00 0.00 0.01 0.01 0.01 0.00 0.00 0.00 0.00 0.00 0.00 0.00 0.00 0.00 0.00 0.00 0.00 0.00 0.00 0.00 0.00 0.00 0.00 0.00 0.00 0.00 0.00 0.00 0.00 0.00
0.00 0.00 0.01 0.01 0.01 0.01 0.00 0.00 0.00 0.00 0.00 0.00 0.00 0.00 0.00 0.01 0.01 0.01 0.01 0.00 0.00 0.00 0.00 0.00 0.00 0.00 0.00 0.00 0.00 0.00 0.00 0.00 0.00 0.00 0.00 0.00 0.00 0.00 0.00 0.01 0.01 0.01 0.01
0.00 0.00 0.00 0.01 0.02 0.01 0.01 0.01 0.00 0.00 0.00 0.00 0.00 0.00 0.00 0.00 0.01 0.01 0.01 0.00 0.00 0.00 0.00 0.00 0.00 0.00 0.00 0.00 0.00 0.00 0.00 0.00 0.00 0.00 0.00 0.00 0.00 0.00 0.01 0.02 0.04 0.05 0.06
0.00 0.00 0.00 0.01 0.02 0.02 0.01 0.01 0.01 0.00 0.00 0.00 0.00 0.00 0.00 0.00 0.01 0.01 0.00 0.00 0.00 0.00 0.00 0.00 0.00 0.00 0.00 0.00 0.00 0.00 0.00 0.00 0.00 0.00 0.00 0.00 0.00 0.00 0.02 0.04 0.05 0.06 0.07
0.00 0.00 0.00 0.01 0.01 0.02 0.01 0.01 0.01 0.01 0.00 0.00 0.00 0.00 0.00 0.00 0.00 0.00 0.00 0.00 0.00 0.00 0.00 0.00 0.00 0.00 0.00 0.00 0.00 0.00 0.00 0.00 0.00 0.00 0.00 0.00 0.00 0.00 0.01 0.02 0.02 0.02 0.02
0.00 0.00 0.00 0.00 0.01 0.01 0.01 0.01 0.01 0.01 0.00 0.00 0.00 0.00 0.00 0.00 0.00 0.00 0.00 0.00 0.00 0.00 0.00 0.00 0.00 0.00 0.00 0.00 0.00 0.00 0.00 0.00 0.00 0.00 0.00 0.00 0.00 0.00 0.00 0.00 0.00 0.00 0.00
0.00 0.00 0.00 0.00 0.00 0.01 0.01 0.01 0.01 0.01 0.00 0.00 0.00 0.00 0.00 0.00 0.00 0.00 0.00 0.00 0.00 0.00 0.00 0.00 0.00 0.00 0.00 0.00 0.00 0.00 0.00 0.00 0.00 0.00 0.00 0.00 0.00 0.00 0.00 0.00 0.00 0.00 0.00
0.00 0.00 0.00 0.00 0.00 0.00 0.01 0.01 0.00 0.00 0.00 0.00 0.00 0.00 0.00 0.00 0.00 0.00 0.00 0.00 0.00 0.00 0.00 0.00 0.00 0.00 0.00 0.00 0.00 0.00 0.00 0.00 0.00 0.00 0.00 0.00 0.00 0.00 0.00 0.00 0.00 0.00 0.00
0.00 0.00 0.00 0.00 0.00 0.00 0.00 0.00 0.00 0.00 0.00 0.00 0.00 0.00 0.00 0.00 0.00 0.00 0.00 0.00 0.00 0.00 0.00 0.00 0.00 0.00 0.00 0.00 0.00 0.00 0.00 0.00 0.00 0.00 0.00 0.00 0.00 0.00 0.00 0.00 0.00 0.00 0.00
0.00 0.00 0.00 0.00 0.00 0.00 0.00 0.00 0.00 0.00 0.00 0.00 0.00 0.00 0.00 0.00 0.00 0.00 0.00 0.00 0.00 0.00 0.00 0.00 0.00 0.00 0.00 0.00 0.00 0.00 0.00 0.00 0.00 0.00 0.00 0.00 0.00 0.00 0.00 0.00 0.00 0.00 0.00
0.00 0.00 0.00 0.00 0.00 0.00 0.00 0.00 0.00 0.00 0.01 0.01 0.01 0.01 0.01 0.00 0.00 0.00 0.00 0.00 0.00 0.00 0.00 0.00 0.00 0.00 0.00 0.00 0.00 0.00 0.00 0.00 0.00 0.00 0.00 0.00 0.00 0.00 0.00 0.00 0.00 0.00 0.00
0.00 0.00 0.00 0.00 0.00 0.00 0.00 0.00 0.00 0.01 0.02 0.02 0.02 0.02 0.02 0.01 0.00 0.00 0.00 0.00 0.00 0.00 0.00 0.00 0.00 0.00 0.00 0.00 0.00 0.00 0.00 0.00 0.00 0.00 0.00 0.00 0.00 0.00 0.00 0.00 0.00 0.00 0.00
0.00 0.00 0.00 0.00 0.00 0.00 0.00 0.00 0.01 0.02 0.03 0.04 0.04 0.03 0.02 0.02 0.01 0.00 0.00 0.00 0.00 0.00 0.00 0.00 0.00 0.00 0.00 0.00 0.00 0.00 0.00 0.00 0.00 0.00 0.00 0.00 0.00 0.00 0.00 0.00 0.00 0.00 0.00
0.00 0.00 0.00 0.00 0.00 0.00 0.00 0.01 0.01 0.03 0.04 0.05 0.06 0.06 0.04 0.02 0.01 0.00 0.00 0.00 0.00 0.00 0.00 0.00 0.00 0.00 0.00 0.00 0.00 0.00 0.00 0.00 0.00 0.00 0.00 0.00 0.00 0.00 0.00 0.00 0.00 0.00 0.00
0.00 0.00 0.00 0.00 0.00 0.00 0.00 0.00 0.01 0.03 0.06 0.08 0.07 0.07 0.06 0.04 0.02 0.01 0.00 0.00 0.00 0.00 0.00 0.00 0.00 0.00 0.00 0.00 0.00 0.00 0.00 0.00 0.00 0.00 0.00 0.00 0.00 0.00 0.00 0.00 0.00 0.00 0.00
0.00 0.00 0.00 0.00 0.00 0.00 0.00 0.00 0.02 0.04 0.07 0.09 0.08 0.07 0.05 0.03 0.01 0.00 0.00 0.00 0.00 0.00 0.00 0.00 0.00 0.00 0.00 0.00 0.00 0.00 0.00 0.00 0.00 0.00 0.00 0.00 0.00 0.00 0.00 0.00 0.00 0.00 0.00
0.00 0.00 0.00 0.00 0.00 0.00 0.00 0.00 0.01 0.03 0.05 0.06 0.05 0.05 0.03 0.02 0.01 0.00 0.00 0.00 0.00 0.00 0.00 0.00 0.00 0.00 0.00 0.00 0.00 0.00 0.00 0.00 0.00 0.00 0.00 0.00 0.00 0.00 0.00 0.00 0.00 0.00 0.00
0.00 0.00 0.00 0.00 0.00 0.00 0.00 0.00 0.01 0.03 0.05 0.06 0.06 0.04 0.02 0.01 0.01 0.00 0.00 0.00 0.00 0.00 0.00 0.00 0.00 0.00 0.00 0.00 0.00 0.00 0.00 0.00 0.00 0.00 0.00 0.00 0.00 0.00 0.00 0.00 0.00 0.00 0.00
0.00 0.00 0.00 0.00 0.00 0.00 0.00 0.00 0.02 0.04 0.06 0.06 0.04 0.03 0.02 0.01 0.00 0.00 0.00 0.00 0.00 0.00 0.00 0.00 0.00 0.00 0.00 0.00 0.00 0.00 0.00 0.00 0.00 0.00 0.00 0.00 0.00 0.00 0.00 0.00 0.00 0.00 0.00
0.00 0.00 0.00 0.00 0.00 0.00 0.00 0.00 0.01 0.03 0.04 0.04 0.03 0.02 0.01 0.01 0.00 0.00 0.00 0.00 0.00 0.00 0.00 0.00 0.00 0.00 0.00 0.00 0.00 0.00 0.00 0.00 0.00 0.00 0.00 0.00 0.00 0.00 0.00 0.00 0.00 0.00 0.00
MSLP
1010.94 1011.09 1011.37 1011.74 1012.16 1012.57 1012.94 1013.23 1013.45 1013.61 1013.74 1013.88 1014.05 1014.28 1014.55 1014.84 1015.10 1015.30 1015.40 1015.39 1015.29 1015.12 1014.94 1014.79 1014.70 1014.71 1014.80 1014.96 1015.15 1015.34 1015.51 1015.63 1015.70 1015.74 1015.75 1015.74 1015.74 1015.72 1015.69 1015.65 1015.59 1015.51 1015.42
1010.83 1011.03 1011.35 1011.76 1012.22 1012.66 1013.06 1013.37 1013.60 1013.77 1013.90 1014.03 1014.21 1014.44 1014.71 1015.00 1015.27 1015.47 1015.57 1015.56 1015.46 1015.30 1015.13 1014.99 1014.91 1014.93 1015.02 1015.18 1015.36 1015.54 1015.69 1015.79 1015.86 1015.88 1015.89 1015.89 1015.87 1015.85 1015.81 1015.75 1015.66 1015.54 1015.43
1010.68 1010.93 1011.30 1011.76 1012.26 1012.74 1013.16 1013.49 1013.73 1013.90 1014.02 1014.15 1014.32 1014.54 1014.81 1015.09 1015.36 1015.57 1015.68 1015.69 1015.61 1015.48 1015.34 1015.23 1015.18 1015.21 1015.31 1015.45 1015.62 1015.77 1015.89 1015.96 1016.00 1016.00 1015.99 1015.98 1015.96 1015.93 1015.88 1015.80 1015.69 1015.56 1015.41
1010.52 1010.82 1011.25 1011.75 1012.29 1012.80 1013.25 1013.60 1013.84 1014.01 1014.12 1014.24 1014.39 1014.59 1014.84 1015.11 1015.38 1015.59 1015.72 1015.77 1015.73 1015.65 1015.56 1015.49 1015.47 1015.52 1015.63 1015.77 1015.90 1016.02 1016.09 1016.12 1016.11 1016.08 1016.04 1016.01 1015.97 1015.93 1015.88 1015.79 1015.68 1015.54 1015.39
1010.39 1010.75 1011.22 1011.76 1012.33 1012.87 1013.34 1013.69 1013.94 1014.10 1014.20 1014.30 1014.42 1014.60 1014.83 1015.09 1015.35 1015.57 1015.73 1015.81 1015.83 1015.80 1015.76 1015.75 1015.77 1015.84 1015.95 1016.07 1016.17 1016.24 1016.27 1016.24 1016.19 1016.11 1016.04 1015.98 1015.93 1015.87 1015.81 1015.73 1015.62 1015.48 1015.32
1010.34 1010.74 1011.24 1011.81 1012.40 1012.95 1013.42 1013.77 1014.02 1014.17 1014.26 1014.34 1014.45 1014.61 1014.82 1015.06 1015.32 1015.55 1015.73 1015.84 1015.91 1015.93 1015.95 1015.98 1016.04 1016.12 1016.22 1016.32 1016.39 1016.41 1016.38 1016.31 1016.20 1016.09 1015.98 1015.89 1015.82 1015.75 1015.69 1015.61 1015.50 1015.37 1015.22
1010.39 1010.80 1011.31 1011.89 1012.47 1013.02 1013.48 1013.84 1014.08 1014.23 1014.32 1014.39 1014.49 1014.64 1014.83 1015.07 1015.31 1015.55 1015.74 1015.89 1015.99 1016.05 1016.11 1016.17 1016.24 1016.33 1016.42 1016.48 1016.51 1016.49 1016.42 1016.30 1016.16 1016.01 1015.87 1015.76 1015.67 1015.60 1015.53 1015.45 1015.35 1015.23 1015.09
1010.51 1010.92 1011.42 1011.97 1012.54 1013.06 1013.51 1013.86 1014.10 1014.26 1014.36 1014.45 1014.55 1014.70 1014.89 1015.12 1015.36 1015.59 1015.79 1015.95 1016.07 1016.16 1016.24 1016.31 1016.38 1016.46 1016.52 1016.55 1016.53 1016.47 1016.36 1016.22 1016.06 1015.89 1015.75 1015.62 1015.52 1015.44 1015.37 1015.28 1015.19 1015.07 1014.94
1010.68 1011.06 1011.52 1012.03 1012.55 1013.04 1013.47 1013.81 1014.07 1014.25 1014.38 1014.49 1014.63 1014.79 1014.99 1015.21 1015.45 1015.67 1015.87 1016.03 1016.16 1016.26 1016.33 1016.40 1016.46 1016.51 1016.53 1016.52 1016.47 1016.38 1016.25 1016.10 1015.93 1015.78 1015.63 1015.52 1015.42 1015.34 1015.26 1015.17 1015.07 1014.95 1014.82
1010.83 1011.17 1011.58 1012.03 1012.50 1012.94 1013.34 1013.68 1013.95 1014.17 1014.35 1014.51 1014.68 1014.87 1015.09 1015.32 1015.55 1015.77 1015.96 1016.11 1016.24 1016.33 1016.41 1016.46 1016.50 1016.51 1016.50 1016.45 1016.37 1016.26 1016.12 1015.98 1015.83 1015.70 1015.59 1015.49 1015.41 1015.34 1015.25 1015.15 1015.04 1014.91 1014.78
1010.91 1011.19 1011.54 1011.93 1012.34 1012.74 1013.12 1013.45 1013.75 1014.01 1014.24 1014.46 1014.69 1014.92 1015.16 1015.40 1015.63 1015.84 1016.02 1016.17 1016.29 1016.39 1016.45 1016.50 1016.52 1016.51 1016.46 1016.39 1016.28 1016.16 1016.02 1015.90 1015.79 1015.70 1015.64 1015.59 1015.53 1015.47 1015.39 1015.28 1015.15 1015.00 1014.84
1010.86 1011.09 1011.38 1011.71 1012.07 1012.43 1012.79 1013.13 1013.45 1013.76 1014.05 1014.33 1014.60 1014.88 1015.14 1015.40 1015.63 1015.84 1016.02 1016.18 1016.31 1016.41 1016.49 1016.54 1016.55 1016.53 1016.46 1016.36 1016.24 1016.12 1016.00 1015.90 1015.84 1015.81 1015.80 1015.80 1015.80 1015.76 1015.68 1015.56 1015.40 1015.22 1015.04
1010.66 1010.86 1011.10 1011.38 1011.70 1012.03 1012.38 1012.73 1013.07 1013.42 1013.76 1014.10 1014.42 1014.74 1015.03 1015.30 1015.54 1015.77 1015.96 1016.13 1016.29 1016.42 1016.52 1016.59 1016.62 1016.60 1016.53 1016.42 1016.29 1016.16 1016.06 1015.99 1015.98 1016.01 1016.07 1016.13 1016.17 1016.17 1016.10 1015.97 1015.79 1015.58 1015.36
1010.33 1010.50 1010.71 1010.96 1011.25 1011.57 1011.91 1012.27 1012.64 1013.02 1013.40 1013.78 1014.15 1014.50 1014.82 1015.11 1015.37 1015.61 1015.84 1016.04 1016.24 1016.42 1016.57 1016.68 1016.73 1016.73 1016.67 1016.56 1016.43 1016.30 1016.21 1016.17 1016.19 1016.27 1016.39 1016.52 1016.61 1016.65 1016.60 1016.48 1016.28 1016.03 1015.77
1009.88 1010.04 1010.25 1010.49 1010.77 1011.09 1011.43 1011.79 1012.18 1012.59 1013.01 1013.42 1013.82 1014.20 1014.55 1014.86 1015.15 1015.43 1015.69 1015.94 1016.19 1016.43 1016.64 1016.80 1016.90 1016.92 1016.87 1016.77 1016.63 1016.50 1016.41 1016.38 1016.43 1016.55 1016.72 1016.90 1017.05 1017.12 1017.11 1016.99 1016.78 1016.51 1016.21
1009.36 1009.53 1009.74 1010.00 1010.28 1010.61 1010.96 1011.34 1011.75 1012.18 1012.62 1013.06 1013.49 1013.90 1014.28 1014.63 1014.95 1015.27 1015.58 1015.88 1016.19 1016.49 1016.75 1016.96 1017.10 1017.15 1017.12 1017.01 1016.87 1016.73 1016.63 1016.59 1016.65 1016.79 1016.99 1017.21 1017.40 1017.52 1017.54 1017.44 1017.24 1016.95 1016.62
1008.81 1008.99 1009.23 1009.51 1009.82 1010.16 1010.54 1010.94 1011.37 1011.82 1012.29 1012.76 1013.22 1013.66 1014.08 1014.47 1014.84 1015.20 1015.56 1015.92 1016.27 1016.61 1016.92 1017.16 1017.33 1017.40 1017.37 1017.26 1017.11 1016.95 1016.82 1016.77 1016.82 1016.96 1017.17 1017.41 1017.63 1017.78 1017.83 1017.77 1017.58 1017.29 1016.95
1008.26 1008.46 1008.72 1009.03 1009.38 1009.76 1010.17 1010.60 1011.06 1011.55 1012.05 1012.55 1013.05 1013.54 1014.00 1014.45 1014.87 1015.27 1015.67 1016.07 1016.45 1016.81 1017.14 1017.40 1017.57 1017.64 1017.61 1017.49 1017.32 1017.14 1016.99 1016.91 1016.92 1017.04 1017.24 1017.47 1017.71 1017.88 1017.97 1017.93 1017.77 1017.50 1017.16
1007.72 1007.94 1008.23 1008.58 1008.97 1009.40 1009.86 1010.34 1010.85 1011.37 1011.92 1012.47 1013.02 1013.56 1014.08 1014.58 1015.05 1015.50 1015.93 1016.34 1016.73 1017.09 1017.40 1017.65 1017.80 1017.86 1017.82 1017.69 1017.50 1017.30 1017.12 1017.01 1016.98 1017.06 1017.22 1017.43 1017.65 1017.84 1017.94 1017.93 1017.80 1017.56 1017.24
1007.19 1007.43 1007.75 1008.14 1008.58 1009.07 1009.59 1010.14 1010.70 1011.29 1011.90 1012.51 1013.12 1013.72 1014.31 1014.86 1015.38 1015.86 1016.30 1016.71 1017.08 1017.41 1017.69 1017.90 1018.03 1018.06 1018.01 1017.87 1017.68 1017.46 1017.26 1017.11 1017.04 1017.06 1017.17 1017.33 1017.52 1017.68 1017.78 1017.79 1017.70 1017.49 1017.20
1006.65 1006.89 1007.24 1007.68 1008.19 1008.75 1009.35 1009.98 1010.62 1011.29 1011.96 1012.65 1013.32 1013.99 1014.63 1015.23 1015.79 1016.29 1016.74 1017.13 1017.47 1017.75 1017.98 1018.14 1018.24 1018.25 1018.19 1018.06 1017.87 1017.66 1017.44 1017.27 1017.15 1017.11 1017.14 1017.23 1017.35 1017.47 1017.55 1017.57 1017.49 1017.33 1017.07
1006.06 1006.32 1006.70 1007.20 1007.78 1008.43 1009.12 1009.85 1010.59 1011.33 1012.09 1012.84 1013.58 1014.31 1015.00 1015.64 1016.23 1016.74 1017.18 1017.54 1017.84 1018.08 1018.25 1018.37 1018.44 1018.44 1018.39 1018.28 1018.11 1017.92 1017.71 1017.51 1017.35 1017.24 1017.18 1017.18 1017.21 1017.26 1017.29 1017.29 1017.23 1017.09 1016.88
1005.42 1005.70 1006.12 1006.68 1007.34 1008.09 1008.89 1009.72 1010.56 1011.40 1012.23 1013.04 1013.84 1014.61 1015.34 1016.01 1016.61 1017.13 1017.56 1017.90 1018.16 1018.36 1018.50 1018.59 1018.64 1018.66 1018.63 1018.55 1018.43 1018.27 1018.08 1017.87 1017.66 1017.47 1017.32 1017.20 1017.13 1017.08 1017.04 1017.00 1016.92 1016.81 1016.63
1004.72 1005.03 1005.51 1006.13 1006.89 1007.74 1008.66 1009.59 1010.53 1011.46 1012.35 1013.22 1014.05 1014.85 1015.60 1016.28 1016.89 1017.41 1017.83 1018.16 1018.41 1018.58 1018.71 1018.80 1018.86 1018.90 1018.91 1018.88 1018.82 1018.70 1018.53 1018.31 1018.06 1017.80 1017.54 1017.31 1017.11 1016.95 1016.82 1016.71 1016.60 1016.48 1016.33
1003.99 1004.34 1004.88 1005.58 1006.44 1007.40 1008.42 1009.47 1010.49 1011.49 1012.44 1013.34 1014.19 1015.00 1015.75 1016.44 1017.05 1017.57 1018.00 1018.33 1018.58 1018.76 1018.89 1019.00 1019.09 1019.16 1019.22 1019.25 1019.24 1019.16 1019.01 1018.79 1018.51 1018.17 1017.82 1017.46 1017.14 1016.85 1016.62 1016.42 1016.27 1016.12 1015.97
1003.28 1003.69 1004.28 1005.07 1006.02 1007.08 1008.21 1009.34 1010.45 1011.50 1012.49 1013.40 1014.26 1015.06 1015.80 1016.49 1017.10 1017.63 1018.07 1018.43 1018.70 1018.90 1019.06 1019.20 1019.32 1019.43 1019.54 1019.61 1019.64 1019.60 1019.47 1019.24 1018.92 1018.53 1018.08 1017.62 1017.17 1016.77 1016.42 1016.14 1015.91 1015.72 1015.55
Thickness
5763 5762 5754 5752 5750 5747 5745 5743 5742 5740 5738 5736 5734 5732 5729 5727 5725 5723 5722 5722 5722 5723 5724 5725 5725 5726 5725 5724 5722 5720 5718 5717 5716 5716 5716 5716 5717 5717 5718 5718 5717 5720 5717
5763 5758 5750 5747 5745 5743 5741 5739 5737 5735 5734 5732 5730 5728 5726 5724 5722 5720 5719 5719 5718 5718 5719 5720 5721 5721 5720 5719 5718 5716 5714 5713 5712 5711 5712 5713 5713 5713 5714 5713 5713 5715 5713
5759 5754 5746 5743 5740 5738 5736 5734 5732 5731 5729 5728 5726 5725 5722 5720 5718 5717 5716 5715 5714 5714 5714 5715 5715 5715 5714 5713 5712 5711 5709 5708 5707 5707 5708 5711 5711 5708 5709 5709 5709 5709 5708
5755 5750 5744 5738 5736 5733 5731 5730 5728 5726 5725 5724 5723 5721 5719 5717 5715 5713 5712 5711 5710 5710 5709 5709 5709 5709 5708 5708 5707 5706 5705 5704 5703 5702 5707 5707 5707 5704 5704 5705 5705 5705 5704
5750 5746 5741 5734 5731 5729 5727 5725 5724 5722 5721 5720 5719 5717 5715 5713 5712 5710 5708 5707 5706 5705 5705 5704 5704 5703 5703 5702 5701 5701 5700 5699 5699 5700 5702 5702 5702 5699 5699 5700 5700 5700 5700
5746 5743 5736 5731 5727 5725 5722 5721 5719 5718 5717 5716 5715 5713 5711 5710 5708 5706 5705 5703 5702 5701 5700 5700 5699 5699 5698 5697 5697 5696 5696 5695 5696 5699 5698 5698 5697 5694 5694 5695 5695 5696 5696
5742 5739 5733 5726 5723 5720 5718 5716 5715 5714 5713 5711 5710 5709 5708 5706 5705 5703 5701 5699 5698 5697 5696 5695 5695 5694 5694 5693 5693 5692 5692 5691 5693 5695 5694 5693 5691 5689 5689 5690 5691 5691 5691
5737 5734 5729 5722 5719 5716 5714 5712 5711 5709 5708 5707 5706 5705 5704 5702 5701 5699 5697 5695 5694 5693 5692 5691 5691 5690 5690 5689 5689 5688 5687 5686 5689 5690 5689 5688 5685 5684 5684 5685 5686 5686 5686
5733 5730 5725 5720 5715 5713 5711 5709 5707 5705 5703 5702 5701 5700 5699 5698 5697 5695 5693 5691 5690 5689 5688 5687 5687 5686 5686 5685 5684 5683 5682 5682 5684 5685 5684 5683 5679 5679 5680 5680 5680 5680 5681
5726 5724 5722 5718 5714 5710 5708 5706 5703 5701 5699 5697 5696 5695 5694 5693 5692 5690 5689 5687 5686 5685 5684 5683 5683 5682 5681 5680 5679 5678 5678 5678 5681 5680 5679 5677 5673 5674 5675 5674 5674 5674 5674
5717 5718 5718 5716 5712 5709 5706 5703 5700 5697 5694 5693 5691 5690 5689 5690 5689 5687 5684 5683 5681 5680 5679 5678 5677 5677 5676 5674 5673 5673 5673 5675 5675 5673 5671 5668 5667 5668 5668 5667 5666 5666 5666
5712 5712 5714 5713 5710 5707 5703 5700 5698 5695 5692 5691 5690 5687 5686 5686 5684 5682 5679 5678 5677 5676 5675 5673 5672 5671 5671 5671 5669 5667 5669 5667 5666 5665 5662 5659 5660 5660 5660 5658 5657 5657 5657
5713 5710 5710 5709 5707 5705 5702 5698 5696 5693 5691 5688 5686 5684 5682 5680 5679 5678 5677 5675 5673 5672 5672 5669 5668 5667 5666 5664 5663 5662 5660 5659 5658 5656 5654 5651 5651 5651 5650 5649 5647 5646 5646
5711 5709 5708 5706 5705 5703 5701 5698 5695 5692 5689 5686 5683 5680 5678 5676 5675 5675 5673 5671 5669 5668 5666 5664 5662 5660 5659 5657 5656 5654 5652 5651 5649 5647 5643 5642 5642 5641 5640 5638 5636 5635 5634
5707 5707 5706 5704 5703 5700 5698 5696 5694 5691 5688 5684 5680 5676 5674 5673 5672 5670 5668 5664 5663 5661 5659 5657 5655 5653 5652 5650 5648 5646 5644 5642 5640 5638 5635 5631 5630 5629 5628 5626 5624 5623 5623
5704 5704 5704 5702 5701 5699 5696 5694 5692 5689 5686 5683 5678 5674 5671 5669 5667 5664 5661 5657 5655 5653 5651 5649 5647 5645 5643 5642 5640 5638 5636 5634 5633 5630 5627 5622 5619 5617 5616 5614 5612 5611 5611
5703 5703 5701 5699 5698 5696 5694 5691 5689 5686 5684 5680 5676 5672 5668 5665 5661 5658 5655 5651 5647 5645 5642 5640 5638 5637 5635 5633 5633 5631 5629 5627 5625 5621 5618 5614 5610 5606 5604 5602 5600 5600 5600
5699 5698 5698 5696 5695 5693 5690 5687 5685 5683 5681 5677 5673 5668 5664 5660 5656 5651 5647 5643 5640 5637 5634 5632 5631 5629 5626 5626 5626 5624 5622 5618 5617 5613 5608 5604 5601 5597 5594 5591 5589 5589 5589
5696 5696 5694 5692 5691 5689 5685 5682 5680 5678 5676 5672 5667 5663 5658 5653 5648 5644 5640 5635 5632 5629 5626 5623 5621 5620 5618 5616 5616 5615 5613 5611 5607 5603 5600 5594 5590 5586 5584 5582 5580 5579 5579
5691 5692 5692 5690 5688 5685 5680 5676 5672 5671 5668 5664 5660 5655 5650 5645 5641 5636 5631 5627 5623 5620 5617 5614 5611 5609 5607 5606 5607 5607 5604 5601 5598 5594 5590 5585 5580 5576 5574 5572 5571 5570 5569
5684 5686 5687 5686 5684 5680 5675 5670 5665 5661 5657 5653 5649 5646 5641 5636 5632 5628 5623 5618 5615 5612 5609 5607 5604 5601 5598 5596 5599 5600 5597 5592 5589 5584 5579 5576 5572 5566 5563 5561 5559 5557 5558
5680 5682 5683 5683 5681 5677 5672 5667 5661 5654 5646 5642 5638 5634 5630 5627 5623 5619 5615 5610 5606 5602 5600 5597 5594 5592 5587 5584 5585 5589 5590 5589 5580 5575 5569 5565 5561 5556 5553 5549 5545 5544 5543
5676 5679 5679 5679 5677 5672 5668 5660 5651 5642 5634 5629 5625 5622 5619 5617 5613 5610 5606 5601 5597 5594 5590 5586 5583 5581 5578 5573 5571 5572 5575 5577 5570 5568 5561 5554 5549 5544 5539 5535 5531 5529 5527
5673 5674 5674 5673 5671 5667 5662 5656 5651 5645 5636 5627 5619 5613 5609 5606 5603 5599 5596 5592 5588 5583 5579 5575 5571 5569 5565 5563 5558 5553 5551 5550 5549 5555 5555 5548 5540 5533 5527 5523 5519 5516 5514
5667 5666 5666 5665 5663 5660 5656 5652 5648 5642 5631 5619 5610 5604 5600 5596 5593 5589 5586 5582 5578 5573 5569 5564 5560 5556 5553 5549 5546 5542 5540 5535 5532 5530 5538 5536 5531 5525 5519 5513 5508 5504 5501
5659 5657 5657 5657 5655 5652 5649 5646 5643 5634 5623 5612 5604 5597 5591 5587 5583 5579 5576 5572 5568 5563 5558 5553 5549 5544 5540 5535 5532 5528 5525 5523 5521 5516 5517 5518 5517 5514 5508 5503 5497 5492 5486